Darstellungsparameter: Aktuell verwendete Einstellungen:
Skalierung der Graphiken ... ?
xyx+y,   Skalierungsfaktor:      Skalierung: Modus: x, Faktor: 1
Darstellungszeitraum ... ?
Vom - - bis: - -   Zeitraum: 23.04.2014 - 22.04.2017
Min/Max/Avg-Anzeige ... ?
Zeige MMA aktuell
Zeige MMA Monat
Zeige MMA alles
Zeige --A aktuell
Zeige --A Monat
Zeige --A alles
Keine MMA-Anzeige
MMA:
Keine MMA-Graphiken
MMA-Basis: 23.04.2014 - 22.04.2017
Quicknavigation für Darstellung... ?
Tage:      1T, 2T, 3T, 5T -1T -2T -3T -5T +1T +2T +3T +5T
Wochen: 1W, 2W, 3W -1W -2W -3W +1W +2W +3W
Monate: 1M, 3M, 6M -1M -3M -6M +1M +3M +6M
Jahre:    1J, 3J, 5J, 10J -1J -3J -5J -10J +1J +3J +5J +10J
Nutze für die Darstellung ... ?
Originaldaten oder ...
Mittelwerte Minima Maxima auf...
Stundenbasis Tagesbasis Wochenbasis
Monatsbasis Jahresbasis      Datenbasis: Mittelwerte auf Monatsbasis
Darstellen als:
Statistik (Auto) Statistik J:M      Darstellung:
Zur Graphik,    zurück zur Übersicht aller Sensoren.
 
Tabellarische Datenbersicht: ?
 
Sensor: Nr:Datum:Temp:Feuchte:
Aussen-T/F 1 01-04-2014 00:00:00 13.07461 C 61.8167 %
2 01-05-2014 00:00:00 14.50038 C 62.4742 %
3 01-06-2014 00:00:00 18.30492 C 56.1133 %
4 01-07-2014 00:00:00 20.68855 C 63.4024 %
5 01-08-2014 00:00:00 16.77881 C 72.4321 %
6 01-09-2014 00:00:00 15.83639 C 76.0633 %
7 01-10-2014 00:00:00 12.34808 C 84.8956 %
8 01-11-2014 00:00:00 7.28636 C 87.5264 %
9 01-12-2014 00:00:00 3.92785 C 82.7702 %
10 01-01-2015 00:00:00 2.97831 C 80.6874 %
11 01-02-2015 00:00:00 2.31857 C 76.6295 %
12 01-03-2015 00:00:00 5.96138 C 71.9744 %
13 01-04-2015 00:00:00 10.08708 C 59.7136 %
14 01-05-2015 00:00:00 14.11318 C 59.4517 %
15 01-06-2015 00:00:00 17.77401 C 57.5986 %
16 01-07-2015 00:00:00 21.15383 C 54.0739 %
17 01-08-2015 00:00:00 20.48263 C 57.5941 %
18 01-09-2015 00:00:00 13.55056 C 71.9281 %
19 01-10-2015 00:00:00 9.14548 C 77.6403 %
20 01-11-2015 00:00:00 8.4055 C 72.4775 %
21 01-12-2015 00:00:00 7.12153 C 75.5180 %
22 01-01-2016 00:00:00 3.22931 C 62.7026 %
23 01-02-2016 00:00:00 4.165 C 51.7853 %
24 01-03-2016 00:00:00 4.93561 C 44.1567 %
25 01-04-2016 00:00:00 9.16442 C 37.4539 %
Sensor: Nr:Datum:Temp:Feuchte:
Aussen-T/F 26 01-05-2016 00:00:00 14.75924 C 32.6705 %
27 01-06-2016 00:00:00 17.65994 C 35.2127 %
28 01-07-2016 00:00:00 20.08911 C 27.5656 %
29 01-08-2016 00:00:00 18.87739 C 29.3073 %
30 01-09-2016 00:00:00 17.13061 C 31.7786 %
31 01-10-2016 00:00:00 9.08215 C 46.4757 %
32 01-11-2016 00:00:00 4.67064 C 43.4678 %
33 01-12-2016 00:00:00 2.26987 C 40.0435 %
34 01-01-2017 00:00:00 -2.19691 C 36.8838 %
35 01-02-2017 00:00:00 4.27015 C 34.4211 %
36 01-03-2017 00:00:00 8.54404 C 27.9731 %
37 01-04-2017 00:00:00 9.71515 C 23.1602 %
Sensor: Nr:Datum:Temp:Feuchte:
G-T/H 1 01-04-2014 00:00:00 13.35018 C 64.4217 %
2 01-05-2014 00:00:00 14.92981 C 64.9573 %
3 01-06-2014 00:00:00 17.32917 C 65.7567 %
4 01-07-2014 00:00:00 20.00548 C 63.9858 %
5 01-08-2014 00:00:00 18.25496 C 68.0065 %
6 01-09-2014 00:00:00 16.80489 C 73.2339 %
7 01-10-2014 00:00:00 14.41275 C 77.4223 %
8 01-11-2014 00:00:00 10.97103 C 76.0556 %
9 01-12-2014 00:00:00 8.2211 C 71.9901 %
10 01-01-2015 00:00:00 7.7703 C 69.1616 %
11 01-02-2015 00:00:00 7.13586 C 66.7551 %
12 01-03-2015 00:00:00 8.41612 C 67.7166 %
13 01-04-2015 00:00:00 11.09708 C 63.7294 %
14 01-05-2015 00:00:00 14.19547 C 64.8971 %
15 01-06-2015 00:00:00 16.67323 C 66.6111 %
16 01-07-2015 00:00:00 20.51939 C 61.6550 %
17 01-08-2015 00:00:00 19.86438 C 65.2401 %
18 01-09-2015 00:00:00 15.79436 C 69.1406 %
19 01-10-2015 00:00:00 12.40588 C 71.0373 %
20 01-11-2015 00:00:00 11.21225 C 72.9081 %
21 01-12-2015 00:00:00 10.13892 C 74.2796 %
22 01-01-2016 00:00:00 7.64302 C 71.8879 %
23 01-02-2016 00:00:00 8.09267 C 68.5325 %
24 01-03-2016 00:00:00 8.1825 C 67.9887 %
25 01-04-2016 00:00:00 11.07583 C 64.9083 %
Sensor: Nr:Datum:Temp:Feuchte:
G-T/H 26 01-05-2016 00:00:00 15.2761 C 62.5518 %
27 01-06-2016 00:00:00 17.90226 C 67.6934 %
28 01-07-2016 00:00:00 20.10003 C 64.9435 %
29 01-08-2016 00:00:00 19.4175 C 64.7397 %
30 01-09-2016 00:00:00 18.43172 C 64.2644 %
31 01-10-2016 00:00:00 12.94515 C 70.3911 %
32 01-11-2016 00:00:00 9.75253 C 69.0194 %
33 01-12-2016 00:00:00 7.34774 C 68.8665 %
34 01-01-2017 00:00:00 5.78588 C 66.0199 %
35 01-02-2017 00:00:00 7.70223 C 68.6768 %
36 01-03-2017 00:00:00 10.22215 C 64.2345 %
37 01-04-2017 00:00:00 11.37174 C 61.3591 %

Maximal/Minimal-Werte vom 23.04.2014 - 22.04.2017

Sensor Min Max Avg
Temp
(Aussen-T/F)
-18.7 °C
20-06-2016  11:38:17
44.1 °C
01-07-2015  18:22:17
11.05 °C
Feuchte
(Aussen-T/F)
20 %
23-04-2014  16:35:17
95 %
15-10-2014  07:43:17
55.56 %
Temp
(G-T/H)
-6 °C
01-12-2016  10:32:18
28.5 °C
18-07-2014  18:33:17
13.16 °C
Feuchte
(G-T/H)
27 %
27-03-2017  16:04:17
84 %
20-09-2014  19:17:17
67.83 %

Die Daten stammen von einer Davis Vantage Pro 2 Wetter-Station und werden unter Linux mit der Software wview2wettercgi und aufbereitet. Alle Angaben erfolgen ohne Gewähr für ihre Vollständigkeit oder Richtigkeit.
Kontakt: Rainer Krienke krienke@uni-koblenz.de . Meine Webseiten an der Uni Koblenz oder privat.
Version: $Revision: 0.78 $